Wind_Speed
25 26 26 26 26 27 27 27 27 27 28 28 28 28 28 28 27 28 29 30 30 30 30 30 30 30 29 29 29 29 29 29 29 29 30 31 32 32 33 33 33 33 35
24 24 25 25 25 25 26 26 26 26 26 26 27 27 26 26 27 26 26 27 27 27 28 28 28 28 28 28 28 27 27 27 28 28 29 29 29 30 31 31 31 31 31
24 24 24 24 24 24 24 24 24 24 24 25 25 25 25 25 25 25 25 25 25 25 25 25 25 25 26 26 26 26 26 26 27 27 27 27 27 28 29 29 29 29 29
24 24 24 23 23 23 23 23 23 23 23 22 23 23 23 24 24 24 24 23 24 24 24 24 24 25 25 24 24 25 25 25 25 25 25 25 25 26 26 26 26 27 27
23 23 23 22 22 22 21 21 21 21 21 21 21 21 21 21 21 22 21 21 22 22 22 22 22 22 23 23 23 22 22 23 23 23 23 23 23 24 24 25 26 26 26
22 21 20 20 19 19 18 18 18 18 18 19 19 19 19 19 20 20 20 20 21 21 20 20 20 21 21 22 21 21 22 22 22 22 21 21 22 22 23 24 24 24 24
18 17 17 17 16 16 16 16 16 16 17 17 17 17 17 17 17 17 18 19 19 19 19 19 19 20 20 21 20 20 20 20 20 20 20 20 21 21 21 20 20 20 20
14 14 13 13 12 12 12 13 14 14 14 14 14 15 15 15 15 15 15 15 15 15 15 16 16 16 17 17 16 16 16 17 17 18 18 18 18 18 17 17 18 18 18
11 11 10 10 10 10 9 10 10 10 11 11 11 12 12 11 11 11 10 10 11 11 12 12 12 13 13 13 13 14 14 14 14 15 15 15 15 15 15 16 16 16 16
8 7 6 7 7 6 6 7 7 7 8 8 8 8 8 7 7 8 7 7 8 8 8 8 8 9 9 9 10 10 10 10 11 12 12 12 12 12 13 13 13 14 14
5 4 3 4 5 4 4 5 5 4 5 5 4 4 4 3 3 4 4 4 5 5 5 5 5 6 6 6 6 7 8 8 8 8 8 9 9 10 11 11 12 12 13
3 3 3 3 4 3 3 4 3 3 3 3 3 2 2 2 2 2 3 3 3 3 3 3 4 4 4 5 5 6 6 6 6 6 7 7 8 8 9 10 11 11 12
3 3 3 4 4 4 4 5 5 5 5 5 5 5 5 4 4 4 4 3 3 4 4 4 4 4 4 5 5 5 5 5 6 6 6 6 7 8 8 9 10 11 12
3 4 4 4 5 6 6 6 6 6 6 7 7 7 7 7 7 7 7 7 7 7 7 7 6 6 6 6 6 6 6 6 6 6 6 7 8 8 9 10 11 11 12
5 5 5 6 6 6 7 7 7 7 7 8 8 9 9 9 9 9 9 9 9 9 9 9 8 8 8 8 8 8 8 8 8 8 8 8 9 9 10 10 11 11 11
6 6 6 6 7 7 7 7 8 8 8 9 9 10 10 10 10 10 10 11 11 11 11 11 10 10 9 9 9 9 9 9 9 10 10 10 10 10 10 11 11 12 12
7 7 7 8 8 9 9 10 10 10 10 11 11 11 12 12 12 12 12 13 13 12 12 12 12 12 11 11 11 11 11 11 11 11 11 11 11 11 12 12 12 12 12
9 9 10 10 11 11 11 11 11 12 12 12 12 13 13 13 13 13 13 13 13 12 13 13 13 13 13 12 12 12 12 12 12 12 12 12 12 12 13 13 13 13 13
11 12 12 12 12 12 13 13 13 13 13 13 13 13 13 13 13 13 13 13 12 12 13 14 14 14 13 13 13 13 12 12 12 12 12 12 13 13 13 14 14 15 15
13 13 13 13 13 13 14 14 14 14 14 14 14 14 14 14 13 13 13 13 13 13 14 14 14 14 14 14 13 13 13 13 13 13 13 13 14 14 14 15 16 16 16
13 13 13 13 13 14 14 14 14 14 14 14 14 15 15 14 13 13 13 13 14 14 14 14 14 14 14 15 15 15 15 15 15 15 15 15 15 15 15 16 16 17 17
13 13 13 13 13 13 13 14 14 14 14 14 15 15 15 14 14 14 15 15 15 15 15 15 15 15 15 15 15 16 16 16 16 16 17 17 17 17 17 17 18 18 19
11 11 12 12 13 13 13 13 13 14 14 14 15 15 15 15 15 15 15 15 15 15 15 15 15 15 15 15 16 16 16 17 17 18 18 18 18 19 19 19 20 20 20
10 10 11 12 12 12 12 13 13 13 14 14 14 14 15 15 15 15 15 15 14 14 14 14 15 15 15 16 16 16 17 17 18 18 19 19 20 20 21 21 22 22 23
9 9 10 10 11 11 11 11 12 12 12 12 12 13 13 13 13 13 13 13 13 14 14 14 14 15 15 16 16 17 17 18 18 19 20 20 21 22 22 23 24 25 25
8 8 9 9 9 10 10 10 11 11 11 11 11 11 11 11 11 11 11 12 12 13 13 13 14 14 15 16 16 17 18 19 19 20 21 21 22 23 24 24 26 27 27
Wind_Direction
284 282 280 278 276 277 275 274 273 273 272 272 272 272 273 274 273 272 271 271 271 271 272 273 274 273 273 273 271 271 270 270 271 271 272 271 272 273 275 277 279 281 282
286 284 282 280 277 276 275 274 273 273 273 273 272 273 273 273 274 274 273 272 272 272 273 274 275 275 275 273 273 274 272 272 273 274 275 276 276 278 279 280 281 284 284
286 286 285 283 280 278 277 277 275 274 274 274 274 273 273 273 274 274 273 273 273 273 273 272 273 274 275 275 276 276 276 275 275 277 277 279 281 281 281 282 284 286 286
287 286 286 283 280 279 278 276 274 274 273 273 273 273 272 272 272 272 272 272 272 272 273 273 274 274 275 275 276 276 278 280 280 281 282 282 283 285 286 288 288 288 286
287 286 285 282 281 280 278 276 275 274 272 270 272 272 272 271 270 271 270 268 270 271 272 274 274 274 277 276 277 278 280 282 283 284 285 285 285 287 286 287 288 288 287
288 286 285 283 281 280 278 276 274 273 272 271 272 272 272 271 270 269 269 270 272 272 273 274 275 275 276 276 278 279 281 282 283 284 286 287 287 286 287 286 288 288 288
290 288 288 283 280 278 274 275 276 275 274 271 269 272 272 271 273 273 272 271 272 273 274 274 274 276 276 275 276 279 281 282 283 285 285 286 286 286 287 288 289 291 292
292 291 289 286 285 282 279 278 277 275 274 275 274 273 276 275 273 272 271 273 274 274 273 274 275 279 278 275 278 280 282 283 284 286 286 287 288 287 289 290 292 293 294
297 293 293 293 295 291 286 286 284 282 281 280 278 280 278 274 274 275 274 275 277 280 282 282 281 280 278 277 278 280 282 285 288 291 291 290 291 292 292 294 295 296 298
308 307 308 309 308 306 300 298 292 292 292 292 292 292 290 282 279 278 276 277 281 283 289 289 288 288 285 282 282 283 288 291 292 295 296 295 294 294 297 298 300 302 302
326 328 330 326 328 324 317 318 316 316 315 309 308 309 299 287 286 291 296 294 293 295 300 303 302 298 297 299 300 299 300 302 301 300 301 302 302 303 305 305 306 306 306
346 348 347 350 357 5 9 5 9 15 5 3 7 8 7 359 349 337 333 339 338 333 327 328 333 329 325 325 323 323 321 319 318 317 316 316 315 314 314 313 312 310 309
15 13 18 25 38 48 47 49 54 51 44 44 49 52 50 47 45 45 41 34 33 31 29 22 13 10 6 3 1 360 357 353 349 345 340 337 334 329 324 321 319 319 317
47 49 53 60 63 65 63 64 65 61 60 62 63 63 63 64 65 63 61 59 56 54 52 48 43 43 41 39 38 34 27 22 17 10 360 351 344 340 336 333 329 327 324
67 76 75 72 69 66 63 66 67 68 73 70 68 69 70 70 71 69 66 64 63 61 60 58 57 57 57 55 51 44 37 30 24 17 9 1 356 350 346 343 341 338 336
84 81 76 73 69 69 72 74 71 71 75 76 76 77 76 74 73 71 70 70 68 66 65 63 61 60 56 52 48 44 37 29 23 19 15 11 7 3 359 355 352 350 347
85 82 78 78 78 79 82 81 79 78 80 81 81 80 77 74 73 73 73 72 69 67 65 62 60 58 55 52 48 43 38 34 30 27 23 19 15 11 7 3 0 358 356
87 86 85 86 85 85 85 83 83 84 84 83 82 80 78 76 76 76 75 72 68 66 64 62 60 57 55 52 48 43 39 35 32 28 24 21 18 15 11 8 5 2 359
90 88 87 88 88 88 86 85 86 86 85 83 81 79 78 77 76 75 73 71 68 66 63 61 58 54 51 47 43 38 35 31 28 25 22 20 17 14 12 9 6 3 359
91 89 88 89 89 89 88 87 86 84 83 82 80 79 77 76 75 74 73 71 68 64 61 58 55 51 47 43 40 37 34 30 27 25 22 18 15 12 9 6 3 360 357
90 89 88 87 87 87 87 86 84 84 83 81 80 79 78 76 76 75 73 70 67 63 60 56 53 49 46 43 41 38 35 32 29 25 22 17 13 8 5 2 359 357 355
91 90 88 88 86 86 85 84 83 83 82 81 80 78 77 76 75 74 71 69 66 63 59 56 52 49 46 42 39 35 32 29 27 24 20 17 14 11 7 3 359 355 352
93 92 91 89 88 87 86 85 84 83 82 82 80 78 77 75 74 72 69 67 64 60 57 53 49 46 42 39 35 31 28 25 23 20 17 14 11 7 3 359 356 354 352
93 93 91 90 89 88 87 86 86 85 84 83 80 78 76 74 72 69 66 62 59 56 52 48 44 40 37 34 30 27 23 21 18 15 12 9 6 3 0 357 355 353 350
95 94 93 92 90 88 87 87 87 87 85 83 80 77 75 72 68 65 61 57 53 49 46 42 38 34 30 27 23 20 17 14 12 9 7 6 3 360 357 355 353 352 349
99 96 94 93 91 89 89 89 88 87 85 81 78 75 71 66 62 57 53 49 45 41 37 33 29 26 22 19 16 13 11 9 6 4 2 360 358 356 353 351 350 348 347
Height
5768 5767 5766 5765 5765 5765 5764 5764 5764 5764 5764 5764 5764 5764 5764 5765 5765 5765 5766 5767 5767 5768 5769 5769 5770 5771 5771 5772 5772 5773 5773 5774 5774 5774 5774 5774 5774 5774 5774 5774 5774 5773 5773
5762 5760 5759 5759 5758 5758 5757 5757 5757 5757 5757 5757 5757 5757 5758 5758 5758 5759 5759 5760 5761 5761 5762 5763 5763 5764 5764 5765 5765 5766 5766 5766 5767 5767 5766 5766 5766 5766 5766 5766 5766 5765 5765
5755 5754 5753 5752 5752 5751 5751 5750 5750 5750 5750 5750 5750 5751 5751 5751 5752 5752 5752 5753 5754 5755 5755 5756 5757 5758 5758 5758 5759 5759 5760 5760 5760 5759 5759 5759 5759 5759 5759 5758 5758 5758 5757
5749 5748 5747 5746 5745 5745 5744 5744 5744 5744 5744 5744 5744 5744 5745 5745 5745 5746 5746 5747 5747 5748 5749 5750 5750 5751 5752 5752 5752 5753 5753 5753 5753 5753 5753 5753 5752 5752 5752 5751 5751 5750 5749
5743 5741 5740 5739 5739 5738 5738 5738 5737 5738 5738 5738 5738 5738 5739 5739 5739 5740 5740 5741 5742 5742 5743 5744 5744 5745 5745 5746 5746 5746 5747 5747 5747 5747 5746 5746 5746 5745 5745 5744 5743 5742 5741
5737 5736 5735 5734 5733 5733 5732 5732 5732 5732 5732 5732 5733 5733 5733 5734 5734 5734 5735 5736 5736 5737 5738 5738 5739 5739 5740 5740 5740 5740 5741 5741 5741 5740 5740 5740 5739 5739 5738 5737 5736 5735 5734
5732 5730 5730 5729 5728 5728 5727 5727 5727 5727 5727 5728 5728 5728 5728 5729 5729 5729 5730 5730 5731 5732 5732 5733 5733 5733 5734 5734 5734 5734 5735 5735 5735 5734 5734 5734 5733 5732 5732 5731 5730 5729 5728
5727 5726 5726 5725 5724 5724 5724 5724 5724 5723 5724 5724 5724 5724 5724 5725 5725 5725 5725 5726 5726 5727 5727 5727 5728 5728 5728 5728 5728 5729 5729 5729 5729 5729 5729 5728 5727 5727 5726 5725 5724 5723 5722
5724 5723 5723 5722 5722 5721 5721 5721 5721 5721 5721 5721 5721 5721 5721 5721 5721 5722 5722 5722 5723 5723 5723 5723 5723 5723 5723 5724 5724 5725 5725 5724 5724 5724 5724 5723 5722 5722 5721 5721 5720 5719 5718
5722 5721 5721 5721 5720 5720 5719 5719 5719 5719 5718 5719 5719 5718 5718 5719 5719 5719 5719 5720 5720 5720 5720 5720 5720 5720 5720 5720 5721 5721 5721 5721 5720 5720 5719 5719 5718 5718 5717 5717 5716 5715 5713
5721 5721 5720 5720 5719 5719 5719 5718 5718 5718 5717 5717 5717 5717 5717 5717 5718 5718 5718 5718 5718 5718 5718 5718 5718 5718 5718 5718 5718 5718 5718 5718 5717 5717 5717 5716 5716 5715 5714 5713 5712 5711 5710
5721 5721 5721 5720 5719 5719 5718 5718 5718 5717 5717 5717 5717 5717 5717 5717 5717 5717 5717 5717 5717 5717 5717 5717 5717 5717 5716 5716 5716 5716 5716 5716 5715 5715 5715 5714 5714 5713 5712 5711 5710 5709 5707
5722 5721 5721 5721 5720 5720 5719 5719 5719 5718 5718 5718 5718 5717 5717 5717 5717 5717 5717 5717 5717 5717 5717 5716 5716 5716 5716 5716 5716 5716 5715 5715 5715 5714 5714 5713 5712 5711 5710 5709 5708 5706 5705
5722 5722 5722 5722 5721 5721 5721 5721 5720 5720 5720 5720 5719 5719 5719 5718 5718 5718 5718 5718 5718 5718 5717 5717 5717 5717 5716 5716 5716 5716 5716 5715 5715 5714 5713 5712 5711 5710 5709 5707 5706 5704 5703
5724 5724 5724 5723 5723 5723 5723 5722 5722 5722 5722 5722 5721 5721 5721 5721 5721 5720 5720 5720 5720 5719 5719 5719 5719 5719 5718 5718 5717 5717 5716 5716 5715 5714 5713 5712 5710 5709 5707 5706 5704 5703 5701
5726 5726 5726 5726 5725 5725 5725 5724 5724 5724 5724 5724 5724 5724 5724 5724 5723 5723 5723 5723 5722 5722 5722 5721 5721 5721 5720 5719 5719 5718 5717 5716 5715 5714 5713 5711 5710 5708 5707 5705 5703 5702 5700
5728 5728 5728 5728 5728 5727 5727 5727 5727 5727 5727 5727 5727 5727 5727 5726 5726 5726 5726 5726 5725 5725 5725 5724 5724 5723 5722 5721 5720 5720 5719 5717 5716 5715 5713 5712 5710 5708 5707 5705 5703 5701 5699
5731 5731 5731 5731 5731 5730 5730 5730 5730 5730 5730 5730 5730 5730 5730 5730 5730 5730 5729 5729 5729 5729 5728 5727 5726 5725 5724 5724 5723 5721 5720 5719 5717 5716 5714 5712 5711 5709 5707 5705 5703 5700 5698
5734 5734 5734 5734 5734 5734 5734 5734 5734 5734 5734 5734 5734 5734 5734 5734 5733 5733 5733 5733 5732 5732 5731 5730 5729 5728 5727 5726 5725 5723 5722 5721 5719 5717 5715 5713 5712 5709 5707 5705 5703 5700 5698
5738 5738 5738 5738 5738 5738 5738 5738 5738 5738 5738 5738 5738 5738 5738 5737 5737 5737 5737 5736 5736 5735 5734 5733 5732 5731 5730 5728 5727 5725 5724 5722 5720 5718 5716 5714 5712 5710 5708 5705 5702 5700 5697
5743 5743 5743 5743 5743 5743 5743 5743 5743 5743 5742 5742 5742 5742 5741 5741 5741 5741 5740 5739 5739 5738 5737 5736 5735 5734 5732 5731 5729 5727 5726 5724 5722 5720 5718 5715 5713 5710 5708 5705 5702 5699 5696
5747 5747 5747 5747 5747 5747 5747 5747 5747 5747 5747 5746 5746 5746 5745 5745 5745 5744 5744 5743 5742 5741 5740 5739 5738 5737 5735 5733 5732 5730 5728 5726 5724 5721 5719 5716 5714 5711 5708 5705 5702 5699 5695
5752 5751 5751 5751 5751 5751 5751 5751 5751 5751 5751 5750 5750 5750 5749 5749 5748 5748 5747 5746 5745 5744 5743 5742 5741 5739 5738 5736 5734 5732 5730 5728 5725 5723 5720 5717 5714 5711 5708 5705 5701 5698 5695
5755 5755 5755 5755 5755 5755 5755 5755 5755 5755 5755 5754 5754 5754 5753 5753 5752 5751 5751 5750 5749 5748 5747 5745 5744 5742 5740 5738 5736 5734 5732 5729 5726 5724 5721 5718 5715 5711 5708 5704 5700 5697 5693
5759 5759 5759 5759 5759 5759 5758 5758 5758 5758 5758 5758 5758 5757 5757 5756 5756 5755 5754 5753 5752 5751 5750 5748 5746 5744 5742 5740 5738 5736 5733 5730 5727 5724 5721 5718 5714 5711 5707 5703 5699 5695 5690
5762 5762 5762 5762 5762 5762 5762 5762 5762 5762 5761 5761 5761 5761 5760 5760 5759 5758 5757 5756 5755 5753 5752 5750 5748 5746 5744 5742 5739 5737 5734 5731 5728 5724 5721 5718 5714 5710 5706 5702 5697 5693 5688